owner,sensor,date,latitude,longitude,vertical_datum,direction_of_sea_water_velocity,sea_water_speed,upward_sea_water_velocity,qcFlag 
TABS,ioos:station:wmo:42049:1,2013-12-01T00:00:00Z,28.3507,-96.0058,2.0,196.5074159,12.31771489,-99999.0,'11111222,11111222,99999999' 
TABS,ioos:station:wmo:42049:1,2013-12-01T00:30:00Z,28.3507,-96.0058,2.0,212.8069385,15.30044771,-99999.0,'11111222,11111222,99999999' 
TABS,ioos:station:wmo:42049:1,2013-12-01T01:00:00Z,28.3507,-96.0058,2.0,226.2804711,13.91933906,-99999.0,'11111222,11111222,99999999' 
TABS,ioos:station:wmo:42049:1,2013-12-01T01:30:00Z,28.3507,-96.0058,2.0,233.2066229,14.91001341,-99999.0,'11111222,11111222,99999999' 
TABS,ioos:station:wmo:42049:1,2013-12-01T02:00:00Z,28.3507,-96.0058,2.0,234.0969955,15.87626215,-99999.0,'11111222,11111222,99999999' 
TABS,ioos:station:wmo:42049:1,2013-12-01T02:30:00Z,28.3507,-96.0058,2.0,234.6898974,13.4429833,-99999.0,'11111222,11111222,99999999' 
TABS,ioos:station:wmo:42049:1,2013-12-01T03:00:00Z,28.3507,-96.0058,2.0,234.9895063,15.5301803,-99999.0,'11111222,11111222,99999999' 
TABS,ioos:station:wmo:42049:1,2013-12-01T03:30:00Z,28.3507,-96.0058,2.0,233.9415272,13.69337431,-99999.0,'11111222,11111222,99999999' 
TABS,ioos:station:wmo:42049:1,2013-12-01T04:00:00Z,28.3507,-96.0058,2.0,225.1663378,12.15521699,-99999.0,'11111222,11111222,99999999' 
TABS,ioos:station:wmo:42049:1,2013-12-01T04:30:00Z,28.3507,-96.0058,2.0,233.094252,12.90600248,-99999.0,'11111222,11111222,99999999' 
TABS,ioos:station:wmo:42049:1,2013-12-01T05:00:00Z,28.3507,-96.0058,2.0,245.0055958,10.6029477,-99999.0,'11111222,11111222,99999999' 
TABS,ioos:station:wmo:42049:1,2013-12-01T05:30:00Z,28.3507,-96.0058,2.0,246.7501699,11.83071426,-99999.0,'11111222,11111222,99999999' 
TABS,ioos:station:wmo:42049:1,2013-12-01T06:00:00Z,28.3507,-96.0058,2.0,237.0636436,10.11583412,-99999.0,'11111222,11111222,99999999' 
TABS,ioos:station:wmo:42049:1,2013-12-01T06:30:00Z,28.3507,-96.0058,2.0,248.7595577,8.529396227,-99999.0,'11133222,11111222,99999999' 
TABS,ioos:station:wmo:42049:1,2013-12-01T07:00:00Z,28.3507,-96.0058,2.0,249.3899343,10.0,-99999.0,'11111222,11111222,99999999' 
TABS,ioos:station:wmo:42049:1,2013-12-01T07:30:00Z,28.3507,-96.0058,2.0,241.3481279,16.70555896,-99999.0,'11111222,11111222,99999999' 
TABS,ioos:station:wmo:42049:1,2013-12-01T08:00:00Z,28.3507,-96.0058,2.0,236.3589916,16.08353817,-99999.0,'11111222,11111222,99999999' 
TABS,ioos:station:wmo:42049:1,2013-12-01T08:30:00Z,28.3507,-96.0058,2.0,240.5225573,18.04601064,-99999.0,'11111222,11111222,99999999' 
TABS,ioos:station:wmo:42049:1,2013-12-01T09:00:00Z,28.3507,-96.0058,2.0,231.6463244,19.85465437,-99999.0,'11111222,11111222,99999999' 
TABS,ioos:station:wmo:42049:1,2013-12-01T09:30:00Z,28.3507,-96.0058,2.0,239.9830628,18.57068927,-99999.0,'11111222,11111222,99999999' 
TABS,ioos:station:wmo:42049:1,2013-12-01T10:00:00Z,28.3507,-96.0058,2.0,230.3727655,19.70881275,-99999.0,'11111222,11111222,99999999' 
TABS,ioos:station:wmo:42049:1,2013-12-01T10:30:00Z,28.3507,-96.0058,2.0,232.5283293,21.91120718,-99999.0,'11111222,11111222,99999999' 
TABS,ioos:station:wmo:42049:1,2013-12-01T11:00:00Z,28.3507,-96.0058,2.0,237.0865081,21.47719255,-99999.0,'11111222,11111222,99999999' 
TABS,ioos:station:wmo:42049:1,2013-12-01T11:30:00Z,28.3507,-96.0058,2.0,230.424067,21.69218292,-99999.0,'11111222,11111222,99999999' 
TABS,ioos:station:wmo:42049:1,2013-12-01T12:00:00Z,28.3507,-96.0058,2.0,230.866615,22.6896981,-99999.0,'11111222,11111222,99999999' 
TABS,ioos:station:wmo:42049:1,2013-12-01T12:30:00Z,28.3507,-96.0058,2.0,230.4549416,26.99941666,-99999.0,'11111222,11111222,99999999' 
TABS,ioos:station:wmo:42049:1,2013-12-01T13:00:00Z,28.3507,-96.0058,2.0,233.3300052,29.18617824,-99999.0,'11111222,11111222,99999999' 
TABS,ioos:station:wmo:42049:1,2013-12-01T13:30:00Z,28.3507,-96.0058,2.0,230.7174905,27.89271769,-99999.0,'11111222,11111222,99999999' 
TABS,ioos:station:wmo:42049:1,2013-12-01T14:00:00Z,28.3507,-96.0058,2.0,227.6616311,26.94863447,-99999.0,'11111222,11111222,99999999' 
TABS,ioos:station:wmo:42049:1,2013-12-01T14:30:00Z,28.3507,-96.0058,2.0,231.9635645,28.69394361,-99999.0,'11111222,11111222,99999999' 
TABS,ioos:station:wmo:42049:1,2013-12-01T15:00:00Z,28.3507,-96.0058,2.0,242.2023804,35.14569959,-99999.0,'11111222,11111222,99999999' 
TABS,ioos:station:wmo:42049:1,2013-12-01T15:30:00Z,28.3507,-96.0058,2.0,241.1021543,33.29580454,-99999.0,'11111222,11111222,99999999' 
TABS,ioos:station:wmo:42049:1,2013-12-01T16:00:00Z,28.3507,-96.0058,2.0,240.2087564,35.52479979,-99999.0,'11111222,11111222,99999999' 
TABS,ioos:station:wmo:42049:1,2013-12-01T16:30:00Z,28.3507,-96.0058,2.0,237.877931,34.45424212,-99999.0,'11111222,11111222,99999999' 
TABS,ioos:station:wmo:42049:1,2013-12-01T17:00:00Z,28.3507,-96.0058,2.0,236.1373958,35.06830478,-99999.0,'11111222,11111222,99999999' 
TABS,ioos:station:wmo:42049:1,2013-12-01T17:30:00Z,28.3507,-96.0058,2.0,235.5272355,33.51533679,-99999.0,'11111222,11111222,99999999' 
TABS,ioos:station:wmo:42049:1,2013-12-01T18:00:00Z,28.3507,-96.0058,2.0,236.9025262,33.7691827,-99999.0,'11111222,11111222,99999999' 
TABS,ioos:station:wmo:42049:1,2013-12-01T18:30:00Z,28.3507,-96.0058,2.0,233.9461452,37.05776167,-99999.0,'11111222,11111222,99999999' 
TABS,ioos:station:wmo:42049:1,2013-12-01T19:00:00Z,28.3507,-96.0058,2.0,232.5950363,36.85960526,-99999.0,'11111222,11111222,99999999' 
TABS,ioos:station:wmo:42049:1,2013-12-01T19:30:00Z,28.3507,-96.0058,2.0,229.3708731,38.40862664,-99999.0,'11111222,11111222,99999999' 
TABS,ioos:station:wmo:42049:1,2013-12-01T20:00:00Z,28.3507,-96.0058,2.0,226.0836073,40.7437124,-99999.0,'11111222,11111222,99999999' 
TABS,ioos:station:wmo:42049:1,2013-12-01T20:30:00Z,28.3507,-96.0058,2.0,225.0493253,40.80714766,-99999.0,'11111222,11111222,99999999' 
TABS,ioos:station:wmo:42049:1,2013-12-01T21:00:00Z,28.3507,-96.0058,2.0,225.3591253,39.45026362,-99999.0,'11111222,11111222,99999999' 
TABS,ioos:station:wmo:42049:1,2013-12-01T21:30:00Z,28.3507,-96.0058,2.0,225.966785,38.54280997,-99999.0,'11111222,11111222,99999999' 
TABS,ioos:station:wmo:42049:1,2013-12-01T22:00:00Z,28.3507,-96.0058,2.0,224.3269255,37.33781193,-99999.0,'11111222,11111222,99999999' 
TABS,ioos:station:wmo:42049:1,2013-12-01T22:30:00Z,28.3507,-96.0058,2.0,228.4282564,35.2345569,-99999.0,'11111222,11111222,99999999' 
TABS,ioos:station:wmo:42049:1,2013-12-01T23:00:00Z,28.3507,-96.0058,2.0,224.8229556,34.38676635,-99999.0,'11111222,11111222,99999999' 
TABS,ioos:station:wmo:42049:1,2013-12-01T23:30:00Z,28.3507,-96.0058,2.0,224.0632504,33.74764288,-99999.0,'11111222,11111222,99999999' 
TABS,ioos:station:wmo:42049:1,2013-12-02T00:00:00Z,28.3507,-96.0058,2.0,223.6283702,31.31965836,-99999.0,'11111222,11111222,99999999' 
TABS,ioos:station:wmo:42049:1,2013-12-02T00:30:00Z,28.3507,-96.0058,2.0,219.9557235,31.20525597,-99999.0,'11111222,11111222,99999999' 
TABS,ioos:station:wmo:42049:1,2013-12-02T01:00:00Z,28.3507,-96.0058,2.0,219.6651202,26.69576933,-99999.0,'11111222,11111222,99999999' 
TABS,ioos:station:wmo:42049:1,2013-12-02T01:30:00Z,28.3507,-96.0058,2.0,217.9989871,25.46894776,-99999.0,'11111222,11111222,99999999' 
TABS,ioos:station:wmo:42049:1,2013-12-02T02:00:00Z,28.3507,-96.0058,2.0,223.194402,19.75222519,-99999.0,'11111222,11111222,99999999' 
TABS,ioos:station:wmo:42049:1,2013-12-02T02:30:00Z,28.3507,-96.0058,2.0,224.6661263,15.789962,-99999.0,'11111222,11111222,99999999' 
TABS,ioos:station:wmo:42049:1,2013-12-02T03:00:00Z,28.3507,-96.0058,2.0,243.0117516,9.695854784,-99999.0,'11133222,11111222,99999999' 
TABS,ioos:station:wmo:42049:1,2013-12-02T03:30:00Z,28.3507,-96.0058,2.0,244.3748796,7.630491465,-99999.0,'11133222,11111222,99999999' 
TABS,ioos:station:wmo:42049:1,2013-12-02T04:00:00Z,28.3507,-96.0058,2.0,252.5676872,6.142084337,-99999.0,'11133222,11111222,99999999' 
TABS,ioos:station:wmo:42049:1,2013-12-02T04:30:00Z,28.3507,-96.0058,2.0,270.2401503,4.780041841,-99999.0,'11133222,11111222,99999999' 
TABS,ioos:station:wmo:42049:1,2013-12-02T05:00:00Z,28.3507,-96.0058,2.0,288.9062391,5.771351661,-99999.0,'11133222,11111222,99999999' 
TABS,ioos:station:wmo:42049:1,2013-12-02T05:30:00Z,28.3507,-96.0058,2.0,324.3341184,4.665029475,-99999.0,'11133222,11111222,99999999' 
TABS,ioos:station:wmo:42049:1,2013-12-02T06:00:00Z,28.3507,-96.0058,2.0,263.6267365,3.873938564,-99999.0,'11133222,11111222,99999999' 
TABS,ioos:station:wmo:42049:1,2013-12-02T06:30:00Z,28.3507,-96.0058,2.0,223.1420983,2.61767072,-99999.0,'11133222,11111222,99999999' 
TABS,ioos:station:wmo:42049:1,2013-12-02T07:00:00Z,28.3507,-96.0058,2.0,213.4126073,4.013302879,-99999.0,'11133222,11111222,99999999' 
TABS,ioos:station:wmo:42049:1,2013-12-02T07:30:00Z,28.3507,-96.0058,2.0,210.9346094,6.808494694,-99999.0,'11133222,11111222,99999999' 
TABS,ioos:station:wmo:42049:1,2013-12-02T08:00:00Z,28.3507,-96.0058,2.0,203.7602626,9.505729851,-99999.0,'11133222,11111222,99999999' 
TABS,ioos:station:wmo:42049:1,2013-12-02T08:30:00Z,28.3507,-96.0058,2.0,219.8535194,21.28485847,-99999.0,'11111222,11111222,99999999' 
TABS,ioos:station:wmo:42049:1,2013-12-02T09:00:00Z,28.3507,-96.0058,2.0,227.675625,29.07965612,-99999.0,'11111222,11111222,99999999' 
TABS,ioos:station:wmo:42049:1,2013-12-02T09:30:00Z,28.3507,-96.0058,2.0,228.7983436,31.4859286,-99999.0,'11111222,11111222,99999999' 
TABS,ioos:station:wmo:42049:1,2013-12-02T10:00:00Z,28.3507,-96.0058,2.0,233.9942502,32.60971174,-99999.0,'11111222,11111222,99999999' 
TABS,ioos:station:wmo:42049:1,2013-12-02T10:30:00Z,28.3507,-96.0058,2.0,239.0922387,33.13525766,-99999.0,'11111222,11111222,99999999' 
TABS,ioos:station:wmo:42049:1,2013-12-02T11:00:00Z,28.3507,-96.0058,2.0,245.3264505,30.61504205,-99999.0,'11111222,11111222,99999999' 
TABS,ioos:station:wmo:42049:1,2013-12-02T11:30:00Z,28.3507,-96.0058,2.0,238.7731163,31.03642537,-99999.0,'11111222,11111222,99999999' 
TABS,ioos:station:wmo:42049:1,2013-12-02T12:00:00Z,28.3507,-96.0058,2.0,244.5175693,32.88949072,-99999.0,'11111222,11111222,99999999' 
TABS,ioos:station:wmo:42049:1,2013-12-02T12:30:00Z,28.3507,-96.0058,2.0,240.7318154,33.66791499,-99999.0,'11111222,11111222,99999999' 
TABS,ioos:station:wmo:42049:1,2013-12-02T13:00:00Z,28.3507,-96.0058,2.0,243.6008475,32.36498416,-99999.0,'11111222,11111222,99999999' 
TABS,ioos:station:wmo:42049:1,2013-12-02T13:30:00Z,28.3507,-96.0058,2.0,242.610073,31.3887002,-99999.0,'11111222,11111222,99999999' 
TABS,ioos:station:wmo:42049:1,2013-12-02T14:00:00Z,28.3507,-96.0058,2.0,242.4762849,34.49393715,-99999.0,'11111222,11111222,99999999' 
TABS,ioos:station:wmo:42049:1,2013-12-02T14:30:00Z,28.3507,-96.0058,2.0,240.792407,33.1782715,-99999.0,'11111222,11111222,99999999' 
TABS,ioos:station:wmo:42049:1,2013-12-02T15:00:00Z,28.3507,-96.0058,2.0,240.0701418,30.02400373,-99999.0,'11111222,11111222,99999999' 
TABS,ioos:station:wmo:42049:1,2013-12-02T15:30:00Z,28.3507,-96.0058,2.0,242.7247385,29.96113816,-99999.0,'11111222,11111222,99999999' 
TABS,ioos:station:wmo:42049:1,2013-12-02T16:00:00Z,28.3507,-96.0058,2.0,239.4340515,29.61509075,-99999.0,'11111222,11111222,99999999' 
TABS,ioos:station:wmo:42049:1,2013-12-02T16:30:00Z,28.3507,-96.0058,2.0,243.4966847,28.8855431,-99999.0,'11111222,11111222,99999999' 
TABS,ioos:station:wmo:42049:1,2013-12-02T17:00:00Z,28.3507,-96.0058,2.0,243.8266269,26.79766594,-99999.0,'11111222,11111222,99999999' 
TABS,ioos:station:wmo:42049:1,2013-12-02T17:30:00Z,28.3507,-96.0058,2.0,239.0396701,26.02834032,-99999.0,'11111222,11111222,99999999' 
TABS,ioos:station:wmo:42049:1,2013-12-02T18:00:00Z,28.3507,-96.0058,2.0,234.9973051,27.24847335,-99999.0,'11111222,11111222,99999999' 
TABS,ioos:station:wmo:42049:1,2013-12-02T18:30:00Z,28.3507,-96.0058,2.0,234.052166,25.84134865,-99999.0,'11111222,11111222,99999999' 
TABS,ioos:station:wmo:42049:1,2013-12-02T19:00:00Z,28.3507,-96.0058,2.0,228.6526129,24.0834902,-99999.0,'11111222,11111222,99999999' 
TABS,ioos:station:wmo:42049:1,2013-12-02T19:30:00Z,28.3507,-96.0058,2.0,228.8261573,21.72124536,-99999.0,'11111222,11111222,99999999' 
TABS,ioos:station:wmo:42049:1,2013-12-02T20:00:00Z,28.3507,-96.0058,2.0,217.9862128,18.47350806,-99999.0,'11111222,11111222,99999999' 
TABS,ioos:station:wmo:42049:1,2013-12-02T20:30:00Z,28.3507,-96.0058,2.0,211.8532726,18.0009472,-99999.0,'11111222,11111222,99999999' 
TABS,ioos:station:wmo:42049:1,2013-12-02T21:00:00Z,28.3507,-96.0058,2.0,208.1625484,17.16178604,-99999.0,'11111222,11111222,99999999' 
TABS,ioos:station:wmo:42049:1,2013-12-02T21:30:00Z,28.3507,-96.0058,2.0,205.9682664,18.04157421,-99999.0,'11111222,11111222,99999999' 
TABS,ioos:station:wmo:42049:1,2013-12-02T22:00:00Z,28.3507,-96.0058,2.0,198.0803322,19.42940555,-99999.0,'11111222,11111222,99999999' 
TABS,ioos:station:wmo:42049:1,2013-12-02T22:30:00Z,28.3507,-96.0058,2.0,200.7007593,17.11498174,-99999.0,'11111222,11111222,99999999' 
TABS,ioos:station:wmo:42049:1,2013-12-02T23:00:00Z,28.3507,-96.0058,2.0,199.5408667,19.49274993,-99999.0,'11111222,11111222,99999999' 
TABS,ioos:station:wmo:42049:1,2013-12-02T23:30:00Z,28.3507,-96.0058,2.0,200.0736686,21.55974258,-99999.0,'11111222,11111222,99999999' 
TABS,ioos:station:wmo:42049:1,2013-12-03T00:00:00Z,28.3507,-96.0058,2.0,190.6066543,22.05688101,-99999.0,'11111222,11111222,99999999' 
TABS,ioos:station:wmo:42049:1,2013-12-03T00:30:00Z,28.3507,-96.0058,2.0,189.7078554,20.69637891,-99999.0,'11111222,11111222,99999999' 
TABS,ioos:station:wmo:42049:1,2013-12-03T01:00:00Z,28.3507,-96.0058,2.0,198.358493,21.39915185,-99999.0,'11111222,11111222,99999999' 
TABS,ioos:station:wmo:42049:1,2013-12-03T01:30:00Z,28.3507,-96.0058,2.0,196.3555684,17.25842403,-99999.0,'11111222,11111222,99999999' 
TABS,ioos:station:wmo:42049:1,2013-12-03T02:00:00Z,28.3507,-96.0058,2.0,195.5176363,19.6980532,-99999.0,'11111222,11111222,99999999' 
TABS,ioos:station:wmo:42049:1,2013-12-03T02:30:00Z,28.3507,-96.0058,2.0,194.8750121,20.37275141,-99999.0,'11111222,11111222,99999999' 
TABS,ioos:station:wmo:42049:1,2013-12-03T03:00:00Z,28.3507,-96.0058,2.0,194.671506,19.8988467,-99999.0,'11111222,11111222,99999999' 
TABS,ioos:station:wmo:42049:1,2013-12-03T03:30:00Z,28.3507,-96.0058,2.0,199.3779615,17.48027746,-99999.0,'11111222,11111222,99999999' 
TABS,ioos:station:wmo:42049:1,2013-12-03T04:00:00Z,28.3507,-96.0058,2.0,203.4112589,18.37252296,-99999.0,'11111222,11111222,99999999' 
TABS,ioos:station:wmo:42049:1,2013-12-03T04:30:00Z,28.3507,-96.0058,2.0,194.3289008,14.70755248,-99999.0,'11111222,11111222,99999999' 
TABS,ioos:station:wmo:42049:1,2013-12-03T05:00:00Z,28.3507,-96.0058,2.0,195.5423318,9.964381566,-99999.0,'11133222,11111222,99999999' 
TABS,ioos:station:wmo:42049:1,2013-12-03T05:30:00Z,28.3507,-96.0058,2.0,197.2395923,11.67450641,-99999.0,'11111222,11111222,99999999' 
TABS,ioos:station:wmo:42049:1,2013-12-03T06:00:00Z,28.3507,-96.0058,2.0,189.5974761,10.43607685,-99999.0,'11111222,11111222,99999999' 
TABS,ioos:station:wmo:42049:1,2013-12-03T06:30:00Z,28.3507,-96.0058,2.0,154.3283614,7.45595735,-99999.0,'11133222,11111222,99999999' 
TABS,ioos:station:wmo:42049:1,2013-12-03T07:00:00Z,28.3507,-96.0058,2.0,121.565622,8.978446413,-99999.0,'11133222,11111222,99999999' 
TABS,ioos:station:wmo:42049:1,2013-12-03T07:30:00Z,28.3507,-96.0058,2.0,117.3185352,11.22155961,-99999.0,'11111222,11111222,99999999' 
TABS,ioos:station:wmo:42049:1,2013-12-03T08:00:00Z,28.3507,-96.0058,2.0,120.2949588,11.75531369,-99999.0,'11111222,11111222,99999999' 
TABS,ioos:station:wmo:42049:1,2013-12-03T08:30:00Z,28.3507,-96.0058,2.0,109.0697345,11.41652311,-99999.0,'11111222,11111222,99999999' 
TABS,ioos:station:wmo:42049:1,2013-12-03T09:00:00Z,28.3507,-96.0058,2.0,113.6721909,16.83668613,-99999.0,'11111222,11111222,99999999' 
TABS,ioos:station:wmo:42049:1,2013-12-03T09:30:00Z,28.3507,-96.0058,2.0,115.454631,17.07782188,-99999.0,'11111222,11111222,99999999' 
TABS,ioos:station:wmo:42049:1,2013-12-03T10:00:00Z,28.3507,-96.0058,2.0,118.7407783,15.43104987,-99999.0,'11111222,11111222,99999999' 
TABS,ioos:station:wmo:42049:1,2013-12-03T10:30:00Z,28.3507,-96.0058,2.0,125.420803,21.67092984,-99999.0,'11111222,11111222,99999999' 
TABS,ioos:station:wmo:42049:1,2013-12-03T11:00:00Z,28.3507,-96.0058,2.0,121.280913,22.30201785,-99999.0,'11111222,11111222,99999999' 
TABS,ioos:station:wmo:42049:1,2013-12-03T11:30:00Z,28.3507,-96.0058,2.0,123.8957555,22.39616485,-99999.0,'11111222,11111222,99999999' 
TABS,ioos:station:wmo:42049:1,2013-12-03T12:00:00Z,28.3507,-96.0058,2.0,131.8670931,23.41902005,-99999.0,'11111222,11111222,99999999' 
TABS,ioos:station:wmo:42049:1,2013-12-03T12:30:00Z,28.3507,-96.0058,2.0,127.7256325,23.56662895,-99999.0,'11111222,11111222,99999999' 
TABS,ioos:station:wmo:42049:1,2013-12-03T13:00:00Z,28.3507,-96.0058,2.0,137.0726076,25.41590447,-99999.0,'11111222,11111222,99999999' 
TABS,ioos:station:wmo:42049:1,2013-12-03T13:30:00Z,28.3507,-96.0058,2.0,143.0995341,26.34800372,-99999.0,'11111222,11111222,99999999' 
TABS,ioos:station:wmo:42049:1,2013-12-03T14:00:00Z,28.3507,-96.0058,2.0,149.9054191,28.25935951,-99999.0,'11111222,11111222,99999999' 
TABS,ioos:station:wmo:42049:1,2013-12-03T14:30:00Z,28.3507,-96.0058,2.0,153.8500381,31.47124719,-99999.0,'11111222,11111222,99999999' 
TABS,ioos:station:wmo:42049:1,2013-12-03T15:00:00Z,28.3507,-96.0058,2.0,144.9650326,31.79030355,-99999.0,'11111222,11111222,99999999' 
TABS,ioos:station:wmo:42049:1,2013-12-03T15:30:00Z,28.3507,-96.0058,2.0,149.3930265,32.48589232,-99999.0,'11111222,11111222,99999999' 
TABS,ioos:station:wmo:42049:1,2013-12-03T16:00:00Z,28.3507,-96.0058,2.0,152.3142462,29.27125552,-99999.0,'11111222,11111222,99999999' 
TABS,ioos:station:wmo:42049:1,2013-12-03T16:30:00Z,28.3507,-96.0058,2.0,161.89646,26.77545331,-99999.0,'11111222,11111222,99999999' 
TABS,ioos:station:wmo:42049:1,2013-12-03T17:00:00Z,28.3507,-96.0058,2.0,165.4941407,24.27378009,-99999.0,'11111222,11111222,99999999' 
TABS,ioos:station:wmo:42049:1,2013-12-03T17:30:00Z,28.3507,-96.0058,2.0,164.6680111,24.24278243,-99999.0,'11111222,11111222,99999999' 
TABS,ioos:station:wmo:42049:1,2013-12-03T18:00:00Z,28.3507,-96.0058,2.0,170.7001888,26.05241256,-99999.0,'11111222,11111222,99999999' 
TABS,ioos:station:wmo:42049:1,2013-12-03T18:30:00Z,28.3507,-96.0058,2.0,172.3464034,27.70681685,-99999.0,'11111222,11111222,99999999' 
TABS,ioos:station:wmo:42049:1,2013-12-03T19:00:00Z,28.3507,-96.0058,2.0,177.4690324,27.1765064,-99999.0,'11111222,11111222,99999999' 
TABS,ioos:station:wmo:42049:1,2013-12-03T19:30:00Z,28.3507,-96.0058,2.0,185.0366321,26.99424013,-99999.0,'11111222,11111222,99999999' 
TABS,ioos:station:wmo:42049:1,2013-12-03T20:00:00Z,28.3507,-96.0058,2.0,187.8115827,28.76696195,-99999.0,'11111222,11111222,99999999' 
TABS,ioos:station:wmo:42049:1,2013-12-03T20:30:00Z,28.3507,-96.0058,2.0,194.0852275,28.22873182,-99999.0,'11111222,11111222,99999999' 
TABS,ioos:station:wmo:42049:1,2013-12-03T21:00:00Z,28.3507,-96.0058,2.0,196.4859878,31.43224459,-99999.0,'11111222,11111222,99999999' 
TABS,ioos:station:wmo:42049:1,2013-12-03T21:30:00Z,28.3507,-96.0058,2.0,197.2714917,31.15485516,-99999.0,'11111222,11111222,99999999' 
TABS,ioos:station:wmo:42049:1,2013-12-03T22:00:00Z,28.3507,-96.0058,2.0,199.4332516,29.21439542,-99999.0,'11111222,11111222,99999999' 
TABS,ioos:station:wmo:42049:1,2013-12-03T22:30:00Z,28.3507,-96.0058,2.0,202.9965299,25.72440281,-99999.0,'11111222,11111222,99999999' 
TABS,ioos:station:wmo:42049:1,2013-12-03T23:00:00Z,28.3507,-96.0058,2.0,205.6240479,27.23897942,-99999.0,'11111222,11111222,99999999' 
TABS,ioos:station:wmo:42049:1,2013-12-03T23:30:00Z,28.3507,-96.0058,2.0,206.1207084,27.11984698,-99999.0,'11111222,11111222,99999999' 
TABS,ioos:station:wmo:42049:1,2013-12-04T00:00:00Z,28.3507,-96.0058,2.0,212.087668,30.156971,-99999.0,'11111222,11111222,99999999' 
TABS,ioos:station:wmo:42049:1,2013-12-04T00:30:00Z,28.3507,-96.0058,2.0,212.5756796,28.10087721,-99999.0,'11111222,11111222,99999999' 
TABS,ioos:station:wmo:42049:1,2013-12-04T01:00:00Z,28.3507,-96.0058,2.0,217.9410343,28.02289956,-99999.0,'11111222,11111222,99999999' 
TABS,ioos:station:wmo:42049:1,2013-12-04T01:30:00Z,28.3507,-96.0058,2.0,229.2955895,25.3928356,-99999.0,'11111222,11111222,99999999' 
TABS,ioos:station:wmo:42049:1,2013-12-04T02:00:00Z,28.3507,-96.0058,2.0,226.6027184,25.52947512,-99999.0,'11111222,11111222,99999999' 
TABS,ioos:station:wmo:42049:1,2013-12-04T02:30:00Z,28.3507,-96.0058,2.0,221.0969324,24.3101378,-99999.0,'11111222,11111222,99999999' 
TABS,ioos:station:wmo:42049:1,2013-12-04T03:00:00Z,28.3507,-96.0058,2.0,221.5320178,22.09511484,-99999.0,'11111222,11111222,99999999' 
TABS,ioos:station:wmo:42049:1,2013-12-04T03:30:00Z,28.3507,-96.0058,2.0,227.9801389,21.07908205,-99999.0,'11111222,11111222,99999999' 
TABS,ioos:station:wmo:42049:1,2013-12-04T04:00:00Z,28.3507,-96.0058,2.0,220.3962003,19.11820337,-99999.0,'11111222,11111222,99999999' 
TABS,ioos:station:wmo:42049:1,2013-12-04T04:30:00Z,28.3507,-96.0058,2.0,206.6963413,15.58096274,-99999.0,'11111222,11111222,99999999' 
TABS,ioos:station:wmo:42049:1,2013-12-04T05:00:00Z,28.3507,-96.0058,2.0,204.6410041,12.25608828,-99999.0,'11111222,11111222,99999999' 
TABS,ioos:station:wmo:42049:1,2013-12-04T05:30:00Z,28.3507,-96.0058,2.0,194.1565209,11.53016912,-99999.0,'11111222,11111222,99999999' 
TABS,ioos:station:wmo:42049:1,2013-12-04T06:00:00Z,28.3507,-96.0058,2.0,185.688122,12.81309486,-99999.0,'11111222,11111222,99999999' 
TABS,ioos:station:wmo:42049:1,2013-12-04T06:30:00Z,28.3507,-96.0058,2.0,173.7463657,13.12811487,-99999.0,'11111222,11111222,99999999' 
TABS,ioos:station:wmo:42049:1,2013-12-04T07:00:00Z,28.3507,-96.0058,2.0,163.2968905,14.85684354,-99999.0,'11111222,11111222,99999999' 
TABS,ioos:station:wmo:42049:1,2013-12-04T07:30:00Z,28.3507,-96.0058,2.0,150.8650729,16.65756885,-99999.0,'11111222,11111222,99999999' 
TABS,ioos:station:wmo:42049:1,2013-12-04T08:00:00Z,28.3507,-96.0058,2.0,163.9671366,18.03134216,-99999.0,'11111222,11111222,99999999' 
TABS,ioos:station:wmo:42049:1,2013-12-04T08:30:00Z,28.3507,-96.0058,2.0,162.5244672,17.18306434,-99999.0,'11111222,11111222,99999999' 
TABS,ioos:station:wmo:42049:1,2013-12-04T09:00:00Z,28.3507,-96.0058,2.0,159.2047565,21.04067014,-99999.0,'11111222,11111222,99999999' 
TABS,ioos:station:wmo:42049:1,2013-12-04T09:30:00Z,28.3507,-96.0058,2.0,165.8736003,20.0771238,-99999.0,'11111222,11111222,99999999' 
TABS,ioos:station:wmo:42049:1,2013-12-04T10:00:00Z,28.3507,-96.0058,2.0,160.4128415,25.95173405,-99999.0,'11111222,11111222,99999999' 
TABS,ioos:station:wmo:42049:1,2013-12-04T10:30:00Z,28.3507,-96.0058,2.0,164.5994444,31.48034466,-99999.0,'11111222,11111222,99999999' 
TABS,ioos:station:wmo:42049:1,2013-12-04T11:00:00Z,28.3507,-96.0058,2.0,168.9076636,35.08543002,-99999.0,'11111222,11111222,99999999' 
TABS,ioos:station:wmo:42049:1,2013-12-04T11:30:00Z,28.3507,-96.0058,2.0,169.3685639,36.42524399,-99999.0,'11111222,11111222,99999999' 
TABS,ioos:station:wmo:42049:1,2013-12-04T12:00:00Z,28.3507,-96.0058,2.0,172.5220004,37.26694246,-99999.0,'11111222,11111222,99999999' 
TABS,ioos:station:wmo:42049:1,2013-12-04T12:30:00Z,28.3507,-96.0058,2.0,177.3882627,40.60216866,-99999.0,'11111222,11111222,99999999' 
TABS,ioos:station:wmo:42049:1,2013-12-04T13:00:00Z,28.3507,-96.0058,2.0,181.2307234,41.4295607,-99999.0,'11111222,11111222,99999999' 
TABS,ioos:station:wmo:42049:1,2013-12-04T13:30:00Z,28.3507,-96.0058,2.0,183.3279583,43.06262997,-99999.0,'11111222,11111222,99999999' 
TABS,ioos:station:wmo:42049:1,2013-12-04T14:00:00Z,28.3507,-96.0058,2.0,186.769536,43.00987096,-99999.0,'11111222,11111222,99999999' 
TABS,ioos:station:wmo:42049:1,2013-12-04T14:30:00Z,28.3507,-96.0058,2.0,190.794716,42.7668119,-99999.0,'11111222,11111222,99999999' 
TABS,ioos:station:wmo:42049:1,2013-12-04T15:00:00Z,28.3507,-96.0058,2.0,192.0792923,42.05109273,-99999.0,'11111222,11111222,99999999' 
TABS,ioos:station:wmo:42049:1,2013-12-04T15:30:00Z,28.3507,-96.0058,2.0,194.5317678,42.04512457,-99999.0,'11111222,11111222,99999999' 
TABS,ioos:station:wmo:42049:1,2013-12-04T16:00:00Z,28.3507,-96.0058,2.0,196.5865325,41.9662817,-99999.0,'11111222,11111222,99999999' 